sat.trackr.live / text

‹ back to catalog

STARLINK-11704 [DTC]

NORAD 64245 · 2025-119N

PAYLOAD ACTIVE UNKNOWN

§ Identity

Operator
Country
US
Launch date
2025-06-03
Launch site
AFETR
Launch vehicle
Mass (kg)
RCS (m²)

Purposes: comms

External: N2YO · Heavens-Above · Gunter

§ Orbital elements

Epoch: 2026-05-24T06:23:39.006816Z

Period
91.67 min
Inclination
43.0022°
Eccentricity
0.0001533
Mean motion
15.70847868 rev/d
Perigee alt
355.4 km
Apogee alt
357.5 km
Semi-major
6,734.6 km
B*
1.2310e-3
RAAN
113.3199°
Arg perigee
266.5078°
Mean anomaly
93.5614°
Rev number
5,713

§ Raw data

STARLINK-11704 [DTC]1 64245U 25119N   26144.26642369  .00160646  00000+0  12310-2 0  99952 64245  43.0022 113.3199 0001533 266.5078  93.5614 15.70847868 57135

JSON: /api/v1/satellites/64245 · /tle

For live sub-satellite position, see the globe view (requires WebGL).

§ Visibility from observer

Set your observer location to see the next 7 days of passes ≥ 10°. The values pass through the URL so the page stays shareable.

No JS? Fill the form by hand. The geolocation button needs JavaScript.